Watford City, ND

7:04 AM CST on December 15, 2017 (GMT -0600)
Watford City

Weather History for KS25 - October, 2012

Change the Weather History Date:

Tuesday, October 2, 2012

  Actual Average (KISN) Record (KISN)
Temperature  
Mean Temperature 56 °F -  
Max Temperature 69 °F 64 °F 92 °F (1957)
Min Temperature 44 °F 39 °F 14 °F (2002)
Degree Days  
Heating Degree Days 8    
Growing Degree Days 6 (Base 50)    
Moisture  
Dew Point 34 °F    
Average Humidity 41    
Maximum Humidity 66    
Minimum Humidity 28    
Precipitation  
Precipitation 0.00 in - - ()
Sea Level Pressure  
Sea Level Pressure 29.72 in    
Wind  
Wind Speed 11 mph (WNW)    
Max Wind Speed 18 mph    
Max Gust Speed 25 mph    
Visibility 10 miles    
Events      
Averages and records for this station are not official NWS values.
T = Trace of Precipitation, MM = Missing Value Source: NWS Daily Summary

Daily Weather History Graph

Daily Weather History Graph

Search for Another Location

Airport or City:

Trip Planner

Search our weather history database for the weather conditions in past years. The results will help you decide how hot, cold, wet, or windy it might be!

Date:

Astronomy

Oct. 02, 2012 Rise Set
Actual Time 7:54 AM CDT 7:29 PM CDT
Civil Twilight 7:23 AM CDT 7:59 PM CDT
Nautical Twilight 6:47 AM CDT 8:35 PM CDT
Astronomical Twilight 6:11 AM CDT 9:12 PM CDT
Moon 8:27 PM CDT (10/2) 10:38 AM CDT (10/2)
Length of Visible Light 12h 36m
Length of Day
11h 34m
Waning Gibbous, 94% of the Moon is Illuminated
Oct 2
Waning Gibbous
Oct 8
Last Quarter
Oct 15
New
Oct 21
First Quarter
Oct 29
Full

Hourly Weather History & Observations

Time (CDT) Temp. Windchill Dew Point Humidity Pressure Visibility Wind Dir Wind Speed Gust Speed Precip Events Conditions
12:15 AM 59.0 °F - 28.4 °F 31% 29.76 in 10.0 mi South 18.4 mph 25.3 mph N/A   Clear
12:35 AM 59.0 °F - 26.6 °F 29% 29.75 in 10.0 mi SSW 12.7 mph 21.9 mph N/A   Clear
12:55 AM 57.2 °F - 26.6 °F 31% 29.74 in 10.0 mi SSW 13.8 mph 18.4 mph N/A   Clear
1:15 AM 59.0 °F - 26.6 °F 29% 29.72 in 10.0 mi South 16.1 mph 20.7 mph N/A   Clear
1:35 AM 57.2 °F - 26.6 °F 31% 29.71 in 10.0 mi South 11.5 mph 18.4 mph N/A   Clear
2:15 AM 57.2 °F - 26.6 °F 31% 29.70 in 10.0 mi South 8.1 mph - N/A   Clear
2:35 AM 55.4 °F - 26.6 °F 33% 29.69 in 10.0 mi South 6.9 mph - N/A   Clear
3:15 AM 57.2 °F - 26.6 °F 31% 29.65 in 10.0 mi South 11.5 mph - N/A   Clear
3:35 AM 57.2 °F - 26.6 °F 31% 29.64 in 10.0 mi South 10.4 mph - N/A   Clear
4:15 AM 57.2 °F - 28.4 °F 33% 29.62 in 10.0 mi SSW 12.7 mph 21.9 mph N/A   Clear
4:35 AM 57.2 °F - 28.4 °F 33% 29.61 in 10.0 mi SSW 13.8 mph - N/A   Clear
4:55 AM 57.2 °F - 28.4 °F 33% 29.61 in 10.0 mi SW 13.8 mph - N/A   Clear
5:35 AM 57.2 °F - 28.4 °F 33% 29.61 in 10.0 mi WSW 9.2 mph - N/A   Clear
5:55 AM 53.6 °F - 30.2 °F 41% 29.61 in 10.0 mi WSW 8.1 mph - N/A   Clear
6:15 AM 55.4 °F - 30.2 °F 38% 29.61 in 10.0 mi SW 13.8 mph 20.7 mph N/A   Clear
6:35 AM 55.4 °F - 30.2 °F 38% 29.61 in 10.0 mi North 4.6 mph - N/A   Clear
6:55 AM 53.6 °F - 30.2 °F 41% 29.62 in 10.0 mi West 6.9 mph - N/A   Clear
7:15 AM 51.8 °F - 30.2 °F 44% 29.62 in 10.0 mi WSW 5.8 mph - N/A   Clear
7:35 AM 50.0 °F - 32.0 °F 50% 29.62 in 10.0 mi WSW 6.9 mph - N/A   Clear
7:55 AM 50.0 °F - 32.0 °F 50% 29.63 in 10.0 mi SW 8.1 mph - N/A   Clear
8:15 AM 50.0 °F - 32.0 °F 50% 29.63 in 10.0 mi SSW 9.2 mph - N/A   Clear
8:35 AM 53.6 °F - 32.0 °F 44% 29.65 in 9.0 mi West 6.9 mph - N/A   Clear
8:55 AM 57.2 °F - 32.0 °F 38% 29.66 in 10.0 mi WNW 12.7 mph 17.3 mph N/A   Clear
9:15 AM 57.2 °F - 33.8 °F 41% 29.66 in 10.0 mi WNW 9.2 mph - N/A   Clear
9:35 AM 57.2 °F - 35.6 °F 44% 29.67 in 10.0 mi WNW 10.4 mph - N/A   Clear
9:55 AM 59.0 °F - 37.4 °F 45% 29.68 in 10.0 mi WNW 10.4 mph - N/A   Clear
10:15 AM 60.8 °F - 39.2 °F 45% 29.68 in 10.0 mi WNW 8.1 mph - N/A   Clear
10:35 AM 60.8 °F - 39.2 °F 45% 29.68 in 10.0 mi NW 9.2 mph - N/A   Clear
10:55 AM 62.6 °F - 39.2 °F 42% 29.69 in 10.0 mi NW 10.4 mph - N/A   Clear
11:15 AM 62.6 °F - 39.2 °F 42% 29.70 in 10.0 mi WNW 12.7 mph 17.3 mph N/A   Clear
11:35 AM 62.6 °F - 39.2 °F 42% 29.71 in 10.0 mi NW 11.5 mph 19.6 mph N/A   Clear
11:55 AM 62.6 °F - 39.2 °F 42% 29.72 in 10.0 mi NW 12.7 mph - N/A   Clear
12:15 PM 64.4 °F - 39.2 °F 40% 29.73 in 10.0 mi WNW 11.5 mph - N/A   Clear
12:35 PM 64.4 °F - 39.2 °F 40% 29.72 in 10.0 mi WNW 8.1 mph 19.6 mph N/A   Clear
12:55 PM 64.4 °F - 39.2 °F 40% 29.72 in 10.0 mi NW 13.8 mph 18.4 mph N/A   Clear
1:15 PM 66.2 °F - 39.2 °F 37% 29.72 in 10.0 mi NW 10.4 mph - N/A   Clear
1:35 PM 66.2 °F - 37.4 °F 35% 29.72 in 10.0 mi WNW 11.5 mph 16.1 mph N/A   Clear
1:55 PM 68.0 °F - 37.4 °F 33% 29.72 in 10.0 mi WNW 10.4 mph 18.4 mph N/A   Clear
2:15 PM 68.0 °F - 37.4 °F 33% 29.71 in 10.0 mi NW 12.7 mph 19.6 mph N/A   Clear
2:35 PM 68.0 °F - 37.4 °F 33% 29.71 in 10.0 mi NW 15.0 mph 23.0 mph N/A   Clear
2:55 PM 68.0 °F - 35.6 °F 30% 29.72 in 10.0 mi WNW 16.1 mph 23.0 mph N/A   Clear
3:15 PM 68.0 °F - 37.4 °F 33% 29.72 in 10.0 mi WNW 16.1 mph 23.0 mph N/A   Clear
3:35 PM 68.0 °F - 37.4 °F 33% 29.72 in 10.0 mi West 9.2 mph - N/A   Clear
3:55 PM 69.8 °F - 37.4 °F 31% 29.73 in 10.0 mi WNW 10.4 mph 16.1 mph N/A   Clear
4:15 PM 69.8 °F - 37.4 °F 31% 29.73 in 10.0 mi WNW 15.0 mph 23.0 mph N/A   Clear
4:35 PM 69.8 °F - 35.6 °F 28% 29.73 in 10.0 mi WNW 12.7 mph 21.9 mph N/A   Clear
4:55 PM 69.8 °F - 35.6 °F 28% 29.73 in 10.0 mi NW 15.0 mph 23.0 mph N/A   Clear
5:15 PM 69.8 °F - 35.6 °F 28% 29.74 in 10.0 mi WNW 12.7 mph - N/A   Clear
5:35 PM 68.0 °F - 35.6 °F 30% 29.75 in 10.0 mi NW 10.4 mph 20.7 mph N/A   Clear
5:55 PM 68.0 °F - 35.6 °F 30% 29.75 in 10.0 mi NW 10.4 mph 19.6 mph N/A   Clear
6:15 PM 68.0 °F - 37.4 °F 33% 29.76 in 10.0 mi NNW 12.7 mph - N/A   Clear
6:35 PM 66.2 °F - 37.4 °F 35% 29.76 in 10.0 mi North 10.4 mph - N/A   Clear
7:15 PM 62.6 °F - 35.6 °F 37% 29.78 in 10.0 mi NNW 8.1 mph - N/A   Clear
7:35 PM 59.0 °F - 35.6 °F 42% 29.78 in 10.0 mi NNW 5.8 mph - N/A   Clear
7:55 PM 55.4 °F - 35.6 °F 47% 29.78 in 10.0 mi Calm Calm - N/A   Clear
8:15 PM 53.6 °F - 35.6 °F 51% 29.78 in 10.0 mi NNE 4.6 mph - N/A   Clear
8:35 PM 53.6 °F - 35.6 °F 51% 29.78 in 10.0 mi NE 6.9 mph - N/A   Clear
9:15 PM 48.2 °F - 33.8 °F 58% 29.81 in 10.0 mi NE 3.5 mph - N/A   Clear
9:35 PM 48.2 °F - 35.6 °F 62% 29.81 in 10.0 mi NE 4.6 mph - N/A   Clear
9:55 PM 46.4 °F - 33.8 °F 62% 29.82 in 10.0 mi Calm Calm - N/A   Clear
10:15 PM 46.4 °F - 33.8 °F 62% 29.83 in 10.0 mi Calm Calm - N/A   Clear
10:35 PM 44.6 °F - 32.0 °F 61% 29.84 in 10.0 mi Calm Calm - N/A   Clear
10:55 PM 46.4 °F 43.5 °F 35.6 °F 66% 29.84 in 10.0 mi North 5.8 mph - N/A   Scattered Clouds
11:15 PM 46.4 °F 45.2 °F 35.6 °F 66% 29.85 in 10.0 mi North 3.5 mph - N/A   Scattered Clouds
11:35 PM 50.0 °F - 37.4 °F 62% 29.85 in 10.0 mi North 11.5 mph - N/A   Clear
11:55 PM 50.0 °F - 37.4 °F 62% 29.87 in 10.0 mi NNE 6.9 mph - N/A   Clear